Home > Weather > Flagstaff > Past weeks

Flag for USA Weather for the Past 2 Weeks in Flagstaff, Arizona, USA

Now
61 °F

Sunny.


Feels Like: 61 °F
Forecast: 39 / 69 °F
Wind: 12 mph from Southwest

Location: Flagstaff Pulliam Airport

Current Time: May 5, 2016 at 10:22:18 AM

Latest Report: May 5, 2016 at 9:57 AM


Visibility: 10 mi

Pressure: 29.93 "Hg (23.34 "Hg at 2103m altitude)

Humidity: 25%

Dew Point: 25 °F

Location of FlagstaffLocation

Historic Weather in Flagstaff — Graph

°F

Flagstaff Temperature Yesterday

Maximum temperature yesterday: 71 °F (at 1:57 PM)
Minimum temperature yesterday: 33 °F (at 5:57 AM)
Average temperature yesterday: 54 °F

High & Low Weather Summary for the Past Weeks

 TemperatureHumidityPressure
High71 °F (May 4, 1:57 PM)100% (Apr 29, 2:57 AM)30.17 "Hg (Apr 29, 2:57 AM)
Low26 °F (Apr 26, 1:57 AM)8% (Apr 21, 3:57 PM)29.51 "Hg (Apr 28, 3:57 AM)
Average45 °F57%29.87 "Hg
* Reported Apr 20 8:57 AM — May 5 8:57 AM, Flagstaff, Weather by CustomWeather, © 2016

Note: Actual official high and low records may vary slightly from our data, if they occured in-between our weather recording intervals... More about our weather records

Advertising

Flagstaff Weather History for the Previous 24 Hours

Scroll right to see more
 ConditionsComfort  
Time TempWeatherWind HumidityBarometerVisibility
8:57 AM
Thu, May 5
60 °FSunny.18 mph27%29.93 "Hg10 mi
7:57 AM56 °FSunny.No wind46%29.91 "Hg10 mi
6:57 AM39 °FSunny.No wind73%29.93 "Hg10 mi
5:57 AM35 °FSunny.No wind75%29.92 "Hg10 mi
4:57 AM34 °FClear.No wind79%29.91 "Hg10 mi
3:57 AM35 °FClear.No wind72%29.93 "Hg10 mi
2:57 AM35 °FClear.No wind72%29.93 "Hg10 mi
1:57 AM37 °FClear.No wind70%29.94 "Hg10 mi
12:57 AM38 °FClear.No wind70%29.95 "Hg10 mi
11:57 PM
Wed, May 4
40 °FClear.No wind63%29.96 "Hg10 mi
10:57 PM41 °FClear.No wind60%29.96 "Hg10 mi
9:57 PM44 °FClear.No wind51%29.96 "Hg10 mi
8:57 PM48 °FClear.No wind43%29.95 "Hg10 mi
7:57 PM53 °FClear.No wind38%29.93 "Hg10 mi
6:57 PM64 °FSunny.5 mph21%29.93 "Hg10 mi
5:57 PM68 °FSunny.18 mph15%29.96 "Hg10 mi
4:57 PM70 °FSunny.13 mph17%29.95 "Hg10 mi
3:57 PM70 °FSunny.13 mph18%29.94 "Hg10 mi
2:57 PM70 °FSunny.9 mph15%29.98 "Hg10 mi
1:57 PM71 °FSunny.17 mph15%30.00 "Hg10 mi
12:57 PM70 °FSunny.16 mph20%30.03 "Hg10 mi
11:57 AM68 °FSunny.12 mph21%30.03 "Hg10 mi
10:57 AM66 °FSunny.14 mph23%30.07 "Hg10 mi
Weather by CustomWeather, © 2016

See weather overviewHow to use our weather pages